Location: Kalamazoo
(42.2920°N, 85.5870°W)
Time: 13:23:57
(UTC-04:00)

Daily predictions for brighter satellites

Satellite Brightness Start Highest point End
(mag) Time Altitude Azimuth Time Altitude Azimuth Time Altitude Azimuth
SPOT 3 Rocket 4.2 19:08:11 10° SE 19:12:50 34° ENE 19:17:30 10° N
Cosmos 2237 4.2 19:07:14 10° NNW 19:12:59 74° ENE 19:18:41 10° SSE
Cosmos 2221 3.1 19:10:05 10° SSE 19:14:01 35° E 19:18:00 10° NNE
Cosmos 921 Rocket 3.0 19:12:31 10° NNW 19:16:59 79° ENE 19:21:19 10° SSE
Lacrosse 5 rocket 3.8 19:18:32 10° NNW 19:20:08 12° N 19:21:42 10° NNE
Cosmos 2227 Rocket 3.7 19:17:45 10° SE 19:20:58 16° E 19:24:13 10° ENE
CZ-2C R/B 3.6 19:18:21 10° NNE 19:22:52 81° ESE 19:27:18 10° SSW
Cosmos 1743 Rocket 4.1 19:19:42 10° NNW 19:24:04 64° W 19:28:26 10° S
SKYMED 2 4.0 19:21:02 10° NNE 19:25:10 40° E 19:29:15 10° S
SL-16 R/B 4.0 19:23:25 10° NNE 19:25:26 12° NE 19:27:27 10° ENE
Cosmos 158 Rocket 3.9 19:22:19 10° S 19:27:21 70° ESE 19:32:34 10° NNE
Cosmos 2098 Rocket 4.1 19:22:58 10° SSE 19:27:29 39° E 19:33:05 10° NNE
GP-B 3.2 19:27:23 10° N 19:31:51 86° W 19:36:17 10° S
Cosmos 2360 Rocket 3.2 19:26:41 10° NNW 19:32:10 52° WSW 19:37:38 10° S
Cosmos 1300 3.9 19:30:16 10° SE 19:33:12 21° E 19:36:10 10° NE
RESURS DK-1 4.3 19:29:34 10° NW 19:33:21 35° WSW 19:37:05 10° S
Cosmos 1727 Rocket 4.3 19:27:22 10° N 19:33:44 77° W 19:40:02 10° S
Cosmos 1842 Rocket 4.3 19:29:51 10° SSW 19:34:15 59° W 19:38:39 10° N
BREEZE-M DEB (TANK) 3.3 19:32:31 10° W 19:34:22 23° SW 19:36:05 10° SSE
Gbstr 26 Del rocket 3.5 19:31:43 10° NW 19:36:33 82° NE 19:42:36 10° ESE
APEX 2.5 19:33:31 10° SSW 19:36:36 79° WNW 19:39:22 10° NNE
Cosmos 1980 4.5 19:32:33 10° N 19:37:30 30° NE 19:42:26 10° ESE
Cosmos 1048 Rocket 3.9 19:34:25 10° SSW 19:39:31 74° ESE 19:44:39 10° NNE
ALOS 2.7 19:36:03 10° SE 19:40:25 40° ENE 19:44:47 10° N
FENGYUN 3A 3.9 19:37:44 10° SE 19:42:50 45° ENE 19:47:59 10° N
Cosmos 1420 Rocket 4.5 19:40:14 10° NNW 19:45:31 68° WSW 19:50:44 10° S
Abrixas 2.2 19:44:45 10° W 19:46:48 48° NNW 19:47:49 23° NE
Cosmos 2123 Rocket 4.4 19:42:35 10° N 19:48:24 39° ENE 19:54:13 10° SE
COSMOS 2428 2.8 19:44:12 10° NNW 19:49:55 85° WSW 19:55:36 10° SSE
Cosmos 2333 Rocket 2.3 19:46:58 10° NNW 19:52:38 55° ENE 19:58:16 10° SE
Cosmos 2219 3.2 19:47:00 10° SSW 19:52:45 81° ESE 19:58:30 10° NNE
ERS-2 3.6 19:49:50 10° S 19:53:20 41° W 19:56:52 10° NNW
NOSS 0 Rocket 4.0 19:48:43 10° NNW 19:54:46 53° ENE 20:00:44 10° SE
Cosmos 2297 Rocket 3.1 19:53:07 10° SSE 19:57:44 27° ESE 20:00:57 16° ENE
Cosmos 1726 2.0 19:54:46 10° S 19:58:26 70° E 20:02:06 10° NNE
Sich 1 3.1 20:00:23 10° N 20:04:43 55° E 20:09:02 10° SSE
NOAA 12 4.0 20:01:07 10° SSE 20:06:25 80° ENE 20:11:46 10° N
Cosmos 44 4.1 20:02:45 10° SW 20:06:54 44° NW 20:11:04 10° NNE
Cosmos 2082 4.3 20:04:05 10° SSE 20:09:07 33° ESE 20:12:12 20° NE
Thor Agena Rocket 3.7 20:06:36 10° NNE 20:11:30 47° E 20:16:21 10° S
EO 1 Del DPAF 4.4 20:07:53 10° N 20:11:34 45° WNW 20:15:14 10° SW
Cosmos 1331 Rocket 4.0 20:06:43 10° NNW 20:11:52 55° ENE 20:16:38 12° SE
COSMO-SKYMED 1 3.2 20:08:57 10° N 20:13:14 59° WNW 20:17:29 10° SSW
Cosmos 2219 Rocket 2.2 20:12:36 10° NNW 20:18:13 81° WSW 20:23:49 10° SSE
Resurs 01 Rocket 3.6 20:21:18 15° NNE 20:21:18 15° NNE 20:22:26 10° NNE
CZ-4 R/B 4.4 20:18:41 10° SW 20:21:43 19° W 20:24:45 10° NW
Cosmos 1805 Rocket 4.1 20:18:47 10° NNW 20:23:07 60° W 20:27:27 10° S
Abrixas rocket 2.8 20:20:42 10° NW 20:23:53 42° NNE 20:23:56 42° NNE
FengYun 1-2 T 4.1 20:22:12 10° SSE 20:27:38 65° ENE 20:33:04 10° N
BREEZE-M DEB (TANK) 3.3 20:18:20 10° W 20:28:25 62° N 20:29:58 38° ENE
Aureole 2 Rocket 4.0 20:25:25 10° NNW 20:29:12 43° WSW 20:33:04 10° S
CZ-4C R/B 2.9 20:24:20 10° SW 20:29:28 52° NW 20:35:22 10° NNE
Cosmos 1666 Rocket 3.7 20:28:24 10° NNW 20:32:45 74° W 20:37:02 10° S
Cosmos 2228 Rocket 3.2 20:29:44 10° SSE 20:34:06 50° E 20:38:32 10° NNE
Cosmos 1328 Rocket 3.4 20:31:32 10° S 20:35:52 64° E 20:40:12 10° NNE
FREGAT/IRIS 4.2 20:37:52 27° NNW 20:37:52 27° NNW 20:39:23 10° NNW
Cosmos 1633 Rocket 3.1 20:32:03 10° N 20:36:29 83° W 20:40:55 10° S
Meteor 2-2 Rocket 4.1 20:32:05 10° S 20:37:45 78° E 20:43:23 10° NNE
BREEZE-M R/B 2.7 20:37:01 10° SW 20:39:12 57° SSW 20:39:12 57° SSW
Cosmos 1302 Rocket 4.0 20:36:53 10° NNW 20:42:04 58° ENE 20:42:54 51° ESE
Meteor 1-27 4.2 20:42:58 10° S 20:48:34 58° E 20:54:15 10° NNE
Cosmos 494 Rocket 4.0 20:44:30 10° SSW 20:49:36 75° WNW 20:54:45 10° NNE
SJ-6B 3.7 20:56:39 40° NNW 20:56:39 40° NNW 20:59:10 10° NNW
H-2A R/B 3.3 20:55:28 37° SSW 20:56:44 57° W 21:00:37 10° NNW
Cosmos 2237 Rocket 2.3 20:51:24 10° NNW 20:57:06 73° WSW 21:00:17 27° S
Lacrosse 5 rocket 3.8 20:58:37 10° NNW 21:00:02 14° N 21:00:02 14° N
Cosmos 2227 Rocket 2.3 20:58:40 10° SSW 21:04:19 73° WNW 21:08:05 22° NNE
MOS 1-B Rocket 3.8 21:03:12 55° SE 21:04:31 76° ENE 21:10:50 10° N
SL-16 R/B 2.4 21:05:07 10° NNW 21:09:56 55° NNE 21:09:56 55° NNE
USA 32 4.1 21:06:54 10° N 21:12:08 74° W 21:13:51 43° SSW
ATLAS 5 CENTAUR R/B 4.2 21:14:55 10° N 21:17:13 16° NNE 21:17:13 16° NNE
Envisat 4.2 21:28:03 33° N 21:28:03 33° N 21:30:47 10° NNW
Meteor 2-3 Rocket 4.2 21:29:17 10° NNW 21:34:55 57° W 21:35:42 52° SW
Cosmos 2333 Rocket 4.4 21:32:09 10° NW 21:36:27 22° W 21:40:46 10° SSW
Cosmos 2297 Rocket 3.1 21:36:05 10° SW 21:41:29 45° WNW 21:42:51 38° NNW
BREEZE-M DEB (TANK) 3.8 21:31:27 10° WNW 21:42:21 57° WSW 21:42:21 57° WSW
USA 267 4.4 21:52:07 31° SSW 21:52:07 31° SSW 21:55:16 10° SW
Resurs 01 Rocket 4.3 21:58:52 14° NNW 21:58:52 14° NNW 21:59:35 10° NNW
